QPF
0.00 0.00 0.00 0.00 0.00 0.00 0.00 0.00 0.00 0.02 0.05 0.08 0.06 0.03 0.01 0.04 0.04 0.04 0.02 0.02 0.04 0.02 0.00 0.00 0.00 0.00 0.00 0.00 0.00 0.00 0.00 0.00 0.00 0.00 0.00 0.01 0.01 0.00 0.00 0.00 0.00 0.00 0.00
0.00 0.00 0.00 0.00 0.00 0.00 0.00 0.00 0.00 0.01 0.08 0.04 0.05 0.07 0.04 0.05 0.11 0.07 0.05 0.01 0.04 0.02 0.01 0.00 0.00 0.00 0.02 0.01 0.00 0.00 0.00 0.01 0.00 0.00 0.02 0.03 0.06 0.02 0.00 0.00 0.00 0.00 0.00
0.00 0.00 0.00 0.00 0.00 0.00 0.00 0.00 0.00 0.00 0.05 0.05 0.04 0.03 0.04 0.05 0.05 0.05 0.05 0.03 0.02 0.05 0.04 0.04 0.01 0.02 0.02 0.02 0.00 0.00 0.01 0.05 0.01 0.01 0.01 0.01 0.02 0.03 0.01 0.00 0.00 0.00 0.00
0.00 0.00 0.00 0.00 0.00 0.00 0.00 0.00 0.00 0.00 0.01 0.02 0.04 0.07 0.02 0.01 0.02 0.04 0.03 0.02 0.10 0.06 0.03 0.05 0.01 0.02 0.01 0.04 0.04 0.04 0.03 0.03 0.06 0.04 0.02 0.05 0.07 0.07 0.01 0.03 0.02 0.01 0.00
0.09 0.00 0.00 0.00 0.00 0.00 0.00 0.00 0.00 0.00 0.00 0.00 0.00 0.05 0.06 0.02 0.03 0.07 0.08 0.10 0.10 0.09 0.02 0.04 0.00 0.01 0.06 0.06 0.04 0.03 0.07 0.07 0.07 0.09 0.08 0.10 0.08 0.07 0.02 0.03 0.02 0.02 0.01
0.02 0.01 0.00 0.01 0.01 0.00 0.00 0.00 0.00 0.00 0.00 0.00 0.00 0.00 0.02 0.01 0.01 0.03 0.03 0.03 0.05 0.07 0.01 0.01 0.00 0.03 0.01 0.01 0.00 0.01 0.07 0.12 0.11 0.13 0.11 0.11 0.12 0.12 0.06 0.03 0.03 0.02 0.02
0.00 0.00 0.00 0.00 0.00 0.00 0.00 0.00 0.00 0.00 0.00 0.00 0.00 0.00 0.00 0.00 0.00 0.00 0.00 0.00 0.02 0.01 0.01 0.01 0.01 0.00 0.03 0.02 0.13 0.08 0.03 0.15 0.13 0.12 0.09 0.11 0.09 0.08 0.06 0.04 0.02 0.02 0.04
0.00 0.00 0.00 0.00 0.00 0.01 0.02 0.01 0.01 0.01 0.00 0.01 0.01 0.01 0.01 0.00 0.00 0.00 0.01 0.00 0.01 0.03 0.01 0.02 0.06 0.04 0.16 0.08 0.10 0.04 0.13 0.12 0.09 0.05 0.02 0.03 0.03 0.02 0.01 0.02 0.01 0.00 0.00
0.00 0.01 0.01 0.01 0.01 0.01 0.02 0.03 0.04 0.04 0.02 0.01 0.02 0.02 0.02 0.03 0.01 0.01 0.01 0.00 0.01 0.05 0.12 0.07 0.05 0.11 0.10 0.15 0.13 0.07 0.14 0.11 0.12 0.08 0.03 0.01 0.01 0.01 0.00 0.00 0.01 0.00 0.00
0.01 0.01 0.01 0.01 0.01 0.02 0.03 0.01 0.01 0.02 0.02 0.01 0.01 0.01 0.00 0.01 0.02 0.03 0.02 0.01 0.02 0.07 0.09 0.02 0.06 0.04 0.03 0.04 0.03 0.01 0.03 0.11 0.13 0.07 0.04 0.01 0.00 0.00 0.00 0.00 0.00 0.01 0.00
0.01 0.01 0.01 0.01 0.00 0.01 0.01 0.01 0.00 0.00 0.01 0.01 0.01 0.01 0.00 0.00 0.00 0.00 0.01 0.01 0.00 0.00 0.01 0.04 0.02 0.03 0.02 0.01 0.03 0.05 0.05 0.04 0.06 0.05 0.04 0.01 0.00 0.00 0.00 0.00 0.00 0.00 0.00
0.02 0.02 0.01 0.03 0.00 0.00 0.00 0.01 0.01 0.01 0.02 0.00 0.00 0.00 0.00 0.00 0.00 0.00 0.02 0.03 0.02 0.00 0.00 0.01 0.00 0.00 0.00 0.00 0.01 0.02 0.02 0.01 0.01 0.01 0.01 0.01 0.00 0.00 0.00 0.00 0.00 0.00 0.00
0.00 0.00 0.00 0.00 0.00 0.01 0.02 0.02 0.03 0.01 0.01 0.00 0.00 0.00 0.00 0.00 0.00 0.00 0.00 0.00 0.00 0.00 0.00 0.00 0.00 0.00 0.00 0.00 0.00 0.00 0.00 0.00 0.00 0.01 0.01 0.00 0.00 0.00 0.00 0.00 0.00 0.00 0.00
0.00 0.00 0.00 0.00 0.00 0.00 0.00 0.00 0.00 0.00 0.00 0.00 0.00 0.00 0.00 0.00 0.00 0.00 0.00 0.00 0.00 0.00 0.00 0.00 0.00 0.00 0.00 0.00 0.00 0.00 0.00 0.00 0.00 0.00 0.00 0.00 0.00 0.00 0.00 0.00 0.00 0.00 0.00
0.00 0.00 0.00 0.00 0.00 0.00 0.00 0.00 0.00 0.00 0.00 0.00 0.00 0.00 0.00 0.00 0.00 0.00 0.00 0.00 0.00 0.00 0.00 0.00 0.00 0.00 0.00 0.00 0.00 0.00 0.00 0.00 0.00 0.00 0.00 0.00 0.00 0.00 0.00 0.00 0.00 0.00 0.00
0.00 0.00 0.00 0.00 0.00 0.00 0.00 0.00 0.00 0.00 0.00 0.00 0.00 0.00 0.00 0.00 0.00 0.00 0.00 0.00 0.00 0.00 0.00 0.00 0.00 0.00 0.00 0.00 0.00 0.00 0.00 0.00 0.00 0.00 0.00 0.00 0.00 0.00 0.00 0.00 0.00 0.00 0.00
0.00 0.00 0.00 0.00 0.00 0.00 0.00 0.00 0.00 0.00 0.00 0.00 0.00 0.00 0.00 0.00 0.00 0.00 0.00 0.00 0.00 0.00 0.00 0.00 0.00 0.00 0.00 0.00 0.00 0.00 0.00 0.00 0.00 0.00 0.00 0.00 0.00 0.00 0.00 0.00 0.00 0.00 0.00
0.00 0.00 0.00 0.00 0.00 0.00 0.00 0.00 0.00 0.00 0.00 0.00 0.00 0.00 0.00 0.00 0.00 0.00 0.00 0.00 0.00 0.00 0.00 0.00 0.00 0.00 0.00 0.00 0.00 0.00 0.00 0.00 0.00 0.00 0.00 0.00 0.00 0.00 0.00 0.00 0.00 0.00 0.00
0.00 0.00 0.00 0.00 0.00 0.00 0.00 0.00 0.00 0.00 0.00 0.00 0.00 0.00 0.00 0.00 0.00 0.00 0.00 0.00 0.00 0.00 0.00 0.00 0.00 0.00 0.00 0.00 0.00 0.00 0.00 0.00 0.00 0.00 0.00 0.00 0.00 0.00 0.00 0.00 0.00 0.00 0.00
0.00 0.00 0.00 0.00 0.00 0.00 0.00 0.00 0.00 0.00 0.00 0.00 0.00 0.00 0.00 0.00 0.00 0.00 0.00 0.00 0.00 0.00 0.00 0.00 0.00 0.00 0.00 0.00 0.00 0.00 0.00 0.00 0.00 0.00 0.00 0.00 0.00 0.00 0.00 0.00 0.00 0.00 0.00
0.00 0.00 0.00 0.00 0.00 0.00 0.00 0.00 0.00 0.00 0.00 0.00 0.00 0.00 0.00 0.00 0.00 0.00 0.00 0.00 0.00 0.00 0.00 0.00 0.00 0.00 0.00 0.00 0.00 0.00 0.00 0.00 0.00 0.00 0.00 0.00 0.00 0.00 0.00 0.00 0.00 0.00 0.00
0.00 0.00 0.00 0.00 0.00 0.00 0.00 0.00 0.00 0.00 0.00 0.00 0.00 0.00 0.00 0.00 0.00 0.00 0.00 0.00 0.00 0.00 0.00 0.00 0.00 0.00 0.00 0.00 0.00 0.00 0.00 0.00 0.00 0.00 0.00 0.00 0.00 0.00 0.00 0.00 0.00 0.00 0.00
0.00 0.00 0.00 0.00 0.00 0.00 0.00 0.00 0.00 0.00 0.00 0.00 0.00 0.00 0.00 0.00 0.00 0.00 0.00 0.00 0.00 0.00 0.00 0.00 0.00 0.00 0.00 0.00 0.00 0.00 0.00 0.00 0.00 0.00 0.00 0.00 0.00 0.00 0.00 0.00 0.00 0.00 0.00
0.00 0.00 0.00 0.00 0.00 0.00 0.00 0.00 0.00 0.00 0.00 0.00 0.00 0.00 0.00 0.00 0.00 0.00 0.00 0.00 0.00 0.00 0.00 0.00 0.00 0.00 0.00 0.00 0.00 0.00 0.00 0.00 0.00 0.00 0.00 0.00 0.00 0.00 0.00 0.00 0.00 0.00 0.00
0.00 0.00 0.00 0.00 0.00 0.00 0.00 0.00 0.00 0.00 0.00 0.00 0.00 0.00 0.00 0.00 0.00 0.00 0.00 0.00 0.00 0.00 0.00 0.00 0.00 0.00 0.00 0.00 0.00 0.00 0.00 0.00 0.00 0.00 0.00 0.00 0.00 0.00 0.00 0.00 0.00 0.00 0.00
0.00 0.00 0.00 0.00 0.00 0.00 0.00 0.00 0.00 0.00 0.00 0.00 0.00 0.00 0.00 0.00 0.00 0.00 0.00 0.00 0.00 0.00 0.00 0.00 0.00 0.00 0.00 0.00 0.00 0.00 0.00 0.00 0.00 0.00 0.00 0.00 0.00 0.00 0.00 0.00 0.00 0.00 0.00
MSLP
1013.06 1013.61 1014.10 1014.65 1015.19 1015.75 1016.01 1016.36 1016.61 1016.83 1016.95 1017.44 1017.59 1017.59 1017.63 1017.81 1018.05 1018.41 1018.52 1018.32 1018.57 1018.69 1018.60 1018.46 1018.54 1018.49 1018.19 1017.75 1017.55 1017.50 1017.32 1017.24 1016.90 1016.41 1016.36 1017.06 1018.03 1018.15 1017.88 1018.60 1018.78 1018.92 1019.59
1012.29 1013.07 1013.65 1014.13 1014.60 1014.93 1015.39 1015.73 1016.19 1016.42 1016.60 1016.92 1017.19 1017.34 1017.63 1017.60 1017.84 1018.23 1018.25 1017.95 1018.10 1018.23 1018.27 1018.37 1018.17 1017.99 1018.04 1018.37 1017.96 1017.72 1017.38 1017.24 1017.32 1016.99 1016.92 1017.15 1017.64 1017.65 1017.89 1018.30 1018.15 1017.83 1018.16
1011.95 1012.27 1013.03 1013.54 1013.90 1014.27 1014.66 1015.19 1015.52 1015.93 1016.16 1016.30 1016.64 1016.97 1017.12 1017.27 1017.54 1017.65 1017.86 1017.89 1017.90 1017.96 1018.04 1018.01 1018.05 1017.98 1018.16 1017.91 1017.78 1017.31 1016.86 1017.46 1017.70 1017.47 1016.78 1016.68 1016.82 1017.49 1017.68 1017.98 1017.91 1017.95 1018.05
1011.52 1012.09 1012.43 1013.01 1013.32 1013.61 1014.12 1014.60 1014.93 1015.30 1015.64 1015.84 1016.18 1016.48 1016.74 1016.86 1017.01 1017.15 1017.22 1017.29 1017.48 1017.61 1017.49 1017.73 1017.78 1017.60 1017.78 1017.71 1017.78 1017.66 1017.59 1017.45 1017.36 1017.36 1016.79 1016.82 1017.14 1017.26 1017.16 1017.14 1017.13 1017.36 1017.37
1011.84 1012.09 1012.33 1012.75 1013.16 1013.40 1013.72 1014.09 1014.41 1014.72 1014.99 1015.32 1015.53 1015.79 1016.30 1016.35 1016.34 1016.57 1016.98 1017.11 1017.32 1017.28 1016.99 1017.07 1017.11 1017.11 1017.21 1017.46 1017.48 1017.07 1017.21 1017.40 1017.20 1017.05 1017.08 1016.94 1016.80 1016.90 1016.56 1016.34 1016.52 1016.32 1016.88
1011.87 1012.02 1012.34 1012.96 1013.11 1013.29 1013.52 1013.73 1013.97 1014.21 1014.53 1014.82 1014.94 1015.14 1015.45 1015.59 1015.69 1016.12 1016.58 1016.54 1016.57 1016.68 1016.66 1016.59 1016.55 1016.60 1016.79 1016.98 1017.01 1017.10 1017.28 1017.34 1017.24 1017.12 1016.90 1016.73 1016.50 1016.63 1016.59 1016.42 1016.22 1016.10 1016.04
1011.98 1012.27 1012.72 1013.11 1013.33 1013.43 1013.60 1013.63 1013.57 1013.74 1014.03 1014.33 1014.54 1014.73 1014.91 1015.21 1015.45 1015.80 1016.11 1016.26 1016.01 1016.07 1016.01 1016.13 1016.04 1015.71 1016.00 1016.08 1016.02 1016.56 1016.71 1016.94 1017.29 1017.19 1016.74 1016.55 1016.46 1016.25 1016.32 1016.53 1016.67 1016.69 1016.74
1012.49 1012.71 1013.01 1013.51 1013.66 1013.81 1013.49 1013.51 1013.53 1013.53 1013.51 1013.75 1013.98 1014.26 1014.39 1014.67 1015.17 1015.53 1015.75 1015.90 1015.58 1015.40 1015.60 1015.57 1015.68 1015.78 1015.81 1016.09 1015.91 1015.83 1015.66 1016.44 1016.94 1016.78 1016.58 1016.57 1016.61 1016.65 1016.54 1016.51 1017.00 1017.33 1017.90
1012.86 1012.97 1013.33 1013.43 1013.88 1013.84 1013.95 1013.87 1013.56 1013.46 1013.55 1013.66 1013.90 1014.08 1014.17 1014.44 1015.13 1015.35 1015.70 1015.36 1014.94 1014.90 1015.05 1015.23 1015.34 1015.44 1016.42 1016.46 1016.24 1015.64 1015.40 1016.38 1017.55 1017.60 1017.74 1018.23 1018.38 1018.26 1017.70 1016.79 1016.50 1017.17 1017.84
1013.18 1013.33 1013.55 1013.52 1013.75 1013.86 1013.95 1014.13 1014.23 1014.44 1014.31 1014.15 1014.23 1014.82 1014.89 1014.85 1015.50 1015.73 1016.00 1015.56 1014.86 1014.60 1014.69 1015.43 1015.75 1015.89 1016.05 1016.21 1016.18 1016.03 1015.99 1016.37 1017.45 1018.04 1018.05 1017.82 1018.14 1018.08 1018.18 1017.71 1017.62 1017.73 1017.97
1012.98 1012.95 1012.87 1013.41 1013.72 1013.97 1014.23 1014.11 1014.47 1014.61 1014.58 1014.72 1015.03 1015.48 1015.56 1015.56 1015.81 1016.09 1016.22 1015.94 1015.05 1014.49 1014.62 1015.28 1015.84 1016.32 1016.50 1016.43 1016.34 1016.35 1016.52 1016.53 1017.13 1017.55 1017.96 1018.36 1018.42 1018.64 1018.69 1018.85 1019.07 1018.67 1018.72
1013.08 1013.04 1013.21 1013.38 1013.90 1013.99 1013.99 1014.13 1014.43 1014.60 1014.70 1014.98 1015.57 1015.62 1016.06 1015.83 1016.11 1016.28 1016.50 1016.36 1015.89 1015.05 1015.19 1015.62 1016.20 1016.40 1016.49 1016.39 1016.49 1016.78 1016.83 1017.12 1017.68 1018.25 1018.70 1019.14 1019.28 1019.36 1019.47 1019.46 1019.18 1019.51 1019.50
1013.73 1013.98 1014.14 1014.40 1014.62 1014.41 1014.40 1014.53 1014.77 1015.06 1015.26 1015.52 1015.76 1015.96 1015.83 1015.50 1016.60 1016.72 1016.62 1016.32 1016.27 1015.89 1015.80 1016.42 1016.73 1016.96 1016.73 1016.89 1016.94 1016.97 1017.28 1017.78 1018.23 1018.86 1019.35 1019.64 1019.54 1019.74 1019.78 1019.67 1019.67 1019.80 1019.63
1014.24 1014.56 1014.71 1014.88 1015.01 1015.11 1015.08 1015.03 1015.00 1015.36 1015.72 1015.88 1016.12 1016.28 1016.19 1016.75 1017.12 1016.93 1016.78 1016.87 1016.96 1016.86 1017.03 1017.19 1017.14 1017.21 1017.21 1017.43 1017.23 1017.30 1017.53 1017.61 1018.03 1018.44 1019.50 1020.18 1020.02 1019.90 1020.19 1019.97 1019.97 1019.81 1019.64
1014.53 1014.75 1014.95 1015.11 1015.26 1015.79 1016.24 1016.16 1015.81 1016.76 1016.88 1016.39 1016.27 1016.30 1016.17 1016.92 1017.47 1017.31 1017.32 1017.39 1017.38 1017.54 1017.58 1017.63 1017.73 1017.80 1017.75 1017.84 1017.92 1017.90 1017.97 1018.35 1018.38 1018.89 1019.61 1020.02 1020.10 1020.32 1020.38 1020.05 1019.89 1019.50 1019.27
1014.58 1014.77 1014.89 1014.61 1014.90 1015.58 1016.32 1016.74 1017.17 1017.58 1017.46 1016.95 1016.69 1016.53 1017.38 1017.60 1017.73 1017.66 1017.63 1017.78 1017.79 1017.87 1017.65 1017.65 1017.91 1018.19 1018.36 1018.42 1018.31 1018.51 1018.37 1018.78 1019.08 1019.14 1019.53 1019.80 1019.93 1020.12 1019.90 1019.92 1019.75 1019.21 1018.59
1014.56 1014.92 1015.18 1015.17 1015.35 1015.63 1015.90 1016.22 1016.76 1017.93 1017.70 1017.51 1017.58 1017.91 1017.89 1018.09 1018.08 1018.01 1018.00 1017.74 1017.69 1017.66 1017.54 1017.59 1017.71 1017.84 1018.18 1018.17 1018.19 1018.28 1018.54 1018.78 1019.06 1018.99 1019.33 1019.40 1019.54 1019.45 1019.78 1019.16 1018.80 1018.25 1017.96
1014.38 1014.77 1014.83 1015.03 1015.24 1015.43 1015.78 1016.16 1015.90 1016.30 1016.52 1017.26 1017.93 1017.94 1018.11 1018.15 1018.01 1017.85 1017.84 1017.59 1017.44 1017.37 1017.34 1017.34 1017.37 1017.48 1017.71 1017.81 1018.10 1018.72 1018.64 1018.81 1018.97 1019.23 1019.40 1019.35 1019.06 1018.69 1018.49 1018.22 1018.27 1018.17 1017.84
1014.27 1014.16 1014.24 1014.72 1014.89 1015.25 1015.37 1015.22 1015.51 1015.80 1016.11 1016.51 1017.02 1017.74 1018.01 1017.95 1017.82 1017.62 1017.46 1016.66 1015.95 1016.01 1016.10 1016.28 1016.36 1016.78 1017.16 1017.68 1018.15 1018.39 1018.34 1018.26 1018.51 1018.46 1018.24 1018.39 1018.35 1018.31 1018.21 1017.99 1018.07 1018.36 1018.22
1013.77 1014.40 1014.36 1014.22 1014.43 1014.39 1014.55 1014.51 1014.73 1014.56 1014.71 1014.98 1015.34 1015.71 1016.60 1017.24 1016.47 1016.27 1016.10 1015.93 1015.58 1015.49 1015.70 1015.97 1016.26 1016.70 1017.00 1017.22 1017.47 1017.63 1017.71 1017.98 1018.14 1017.90 1017.73 1017.77 1017.83 1017.67 1017.51 1017.71 1017.60 1017.65 1017.93
1012.94 1013.80 1014.05 1013.43 1013.47 1013.62 1013.86 1014.00 1014.02 1014.02 1014.23 1014.43 1014.88 1015.89 1016.41 1015.67 1015.40 1015.32 1015.32 1015.58 1015.47 1015.58 1015.90 1015.93 1016.31 1016.54 1016.86 1017.08 1017.20 1017.31 1017.30 1017.32 1017.57 1017.53 1017.57 1017.63 1017.79 1017.41 1017.67 1017.59 1017.47 1017.54 1017.56
1012.50 1013.02 1013.20 1013.15 1013.44 1013.72 1013.70 1013.81 1013.85 1013.81 1013.90 1014.06 1014.49 1015.86 1016.39 1015.80 1014.95 1015.02 1015.16 1015.35 1015.43 1015.76 1015.75 1016.09 1015.99 1016.02 1016.28 1016.66 1016.95 1016.82 1016.94 1017.06 1017.30 1017.53 1017.61 1017.60 1017.67 1017.52 1017.53 1017.60 1017.52 1017.46 1017.61
1012.46 1012.61 1012.90 1013.00 1013.12 1013.64 1013.84 1013.58 1013.46 1013.42 1013.44 1013.67 1013.89 1014.52 1015.06 1014.69 1014.66 1014.84 1015.02 1015.13 1015.28 1015.48 1015.68 1015.93 1016.04 1016.05 1016.40 1016.57 1016.59 1016.69 1016.60 1016.77 1017.20 1017.38 1017.43 1017.44 1017.45 1017.57 1017.64 1017.51 1017.50 1017.42 1017.64
1012.28 1012.39 1012.56 1012.82 1013.19 1013.24 1013.12 1013.10 1013.13 1013.52 1013.45 1013.51 1013.58 1013.81 1013.93 1014.10 1014.31 1014.53 1014.67 1014.89 1015.13 1015.21 1015.31 1015.57 1015.67 1015.77 1016.15 1016.29 1016.35 1016.58 1016.76 1016.90 1017.18 1017.43 1017.35 1017.39 1017.48 1018.01 1017.63 1017.60 1017.47 1017.49 1017.55
1011.76 1011.99 1012.12 1012.28 1012.44 1012.86 1012.75 1012.89 1012.66 1012.77 1012.96 1013.17 1013.05 1013.10 1013.17 1013.41 1013.64 1013.90 1014.16 1014.47 1014.70 1014.85 1015.01 1015.12 1015.16 1015.54 1016.01 1016.29 1016.09 1016.20 1017.15 1017.58 1017.44 1017.86 1017.47 1017.41 1017.55 1017.69 1017.44 1017.40 1017.48 1017.40 1017.59
1011.35 1011.52 1011.73 1011.86 1012.01 1012.14 1012.12 1012.13 1012.16 1012.25 1012.29 1012.32 1012.40 1012.56 1012.71 1012.87 1013.01 1013.20 1013.52 1013.84 1014.14 1014.26 1014.37 1014.53 1014.78 1015.16 1015.47 1015.83 1016.04 1016.52 1017.23 1017.63 1017.71 1018.06 1017.58 1017.25 1017.25 1017.29 1017.45 1017.65 1017.54 1017.37 1017.34
Thickness
5769 5767 5765 5763 5760 5758 5759 5759 5760 5761 5762 5758 5759 5763 5766 5768 5768 5766 5767 5770 5769 5770 5773 5774 5773 5775 5776 5780 5782 5781 5779 5778 5770 5780 5786 5783 5773 5773 5774 5768 5767 5765 5760
5769 5767 5764 5764 5763 5762 5760 5762 5761 5761 5763 5762 5761 5762 5762 5764 5765 5764 5766 5771 5769 5769 5770 5770 5771 5776 5774 5772 5775 5774 5776 5777 5772 5767 5776 5776 5773 5774 5771 5768 5768 5768 5765
5767 5768 5765 5764 5765 5764 5762 5761 5763 5762 5764 5765 5764 5762 5762 5764 5764 5766 5767 5768 5768 5768 5769 5769 5769 5771 5767 5771 5772 5774 5778 5772 5769 5766 5771 5778 5777 5772 5769 5766 5765 5763 5760
5765 5765 5765 5764 5765 5766 5764 5762 5764 5765 5764 5766 5765 5764 5763 5764 5765 5766 5768 5768 5767 5767 5769 5768 5768 5770 5768 5769 5768 5768 5768 5767 5768 5766 5771 5770 5768 5768 5769 5765 5762 5762 5760
5758 5760 5761 5762 5762 5764 5764 5763 5764 5765 5766 5765 5766 5767 5765 5766 5768 5768 5765 5764 5763 5764 5769 5770 5770 5771 5770 5768 5767 5769 5767 5764 5765 5764 5761 5763 5764 5762 5763 5767 5762 5763 5758
5753 5755 5757 5755 5757 5759 5760 5761 5762 5762 5764 5763 5765 5765 5764 5768 5769 5765 5763 5764 5764 5763 5763 5767 5769 5769 5768 5766 5766 5765 5765 5762 5760 5759 5759 5758 5760 5760 5760 5759 5759 5756 5748
5745 5747 5746 5747 5747 5750 5753 5756 5759 5760 5760 5760 5762 5763 5763 5764 5764 5761 5759 5761 5763 5763 5764 5763 5765 5771 5769 5770 5769 5763 5761 5758 5756 5756 5756 5756 5755 5758 5756 5751 5748 5747 5741
5734 5735 5736 5734 5736 5740 5747 5749 5752 5755 5758 5758 5759 5760 5762 5764 5761 5758 5756 5758 5761 5762 5760 5761 5762 5762 5764 5762 5763 5763 5765 5761 5755 5754 5756 5755 5751 5749 5747 5747 5740 5736 5729
5720 5723 5725 5728 5726 5732 5732 5738 5744 5746 5748 5751 5753 5754 5755 5757 5753 5751 5748 5754 5758 5758 5757 5758 5758 5757 5748 5747 5750 5754 5756 5751 5738 5738 5737 5733 5729 5728 5731 5736 5737 5729 5720
5709 5712 5716 5720 5719 5723 5725 5726 5729 5730 5733 5738 5740 5738 5741 5744 5739 5738 5737 5743 5748 5750 5752 5748 5742 5744 5741 5741 5743 5744 5743 5741 5731 5726 5724 5722 5718 5717 5716 5718 5718 5714 5710
5707 5710 5714 5713 5713 5715 5715 5717 5715 5716 5719 5721 5722 5721 5724 5726 5727 5724 5724 5729 5736 5742 5743 5740 5736 5730 5730 5731 5732 5733 5730 5732 5725 5721 5716 5711 5707 5703 5700 5699 5695 5696 5692
5701 5702 5701 5704 5702 5706 5709 5709 5708 5707 5706 5706 5702 5707 5707 5712 5711 5712 5710 5713 5719 5728 5728 5727 5724 5720 5720 5722 5722 5717 5716 5713 5709 5703 5698 5691 5688 5686 5684 5682 5681 5675 5672
5690 5689 5688 5689 5690 5695 5698 5695 5695 5695 5694 5693 5693 5693 5696 5702 5696 5697 5697 5702 5706 5710 5713 5707 5705 5704 5707 5706 5705 5703 5700 5696 5690 5685 5679 5674 5675 5671 5668 5667 5663 5657 5656
5683 5681 5683 5683 5685 5685 5687 5688 5691 5688 5686 5687 5686 5685 5687 5683 5681 5685 5688 5689 5689 5690 5690 5690 5691 5690 5692 5689 5691 5689 5686 5684 5680 5676 5665 5657 5657 5655 5650 5649 5645 5643 5640
5675 5677 5677 5678 5680 5675 5673 5676 5680 5671 5671 5681 5680 5679 5684 5680 5676 5676 5678 5677 5677 5674 5675 5675 5674 5673 5672 5671 5671 5670 5669 5663 5661 5657 5650 5645 5640 5636 5633 5633 5631 5632 5631
5670 5671 5673 5678 5678 5672 5668 5666 5659 5656 5658 5665 5670 5674 5669 5667 5666 5668 5668 5666 5666 5665 5666 5665 5661 5657 5654 5653 5653 5650 5650 5646 5643 5641 5637 5631 5626 5621 5621 5619 5619 5622 5624
5663 5661 5661 5664 5663 5661 5662 5662 5661 5648 5650 5654 5655 5653 5655 5655 5657 5658 5658 5660 5659 5656 5657 5654 5651 5649 5644 5644 5643 5642 5639 5635 5631 5631 5626 5623 5619 5618 5612 5617 5617 5619 5618
5657 5653 5657 5657 5657 5656 5655 5653 5660 5658 5658 5654 5644 5647 5645 5646 5648 5650 5649 5649 5651 5649 5647 5645 5644 5642 5639 5638 5635 5628 5628 5625 5623 5617 5613 5611 5611 5612 5611 5611 5608 5606 5606
5651 5654 5654 5651 5652 5650 5651 5655 5654 5652 5651 5649 5646 5639 5637 5638 5639 5640 5640 5649 5654 5652 5650 5647 5645 5640 5636 5630 5625 5621 5620 5620 5616 5614 5614 5610 5608 5605 5602 5603 5599 5588 5590
5648 5643 5644 5648 5649 5652 5652 5653 5652 5655 5655 5654 5652 5650 5642 5636 5645 5645 5644 5644 5645 5646 5643 5639 5636 5631 5627 5624 5621 5618 5616 5612 5608 5608 5608 5605 5603 5601 5599 5596 5595 5590 5585
5648 5641 5640 5650 5651 5651 5650 5650 5651 5652 5651 5650 5647 5639 5632 5644 5644 5644 5642 5639 5639 5637 5633 5632 5628 5625 5621 5618 5615 5612 5611 5609 5605 5604 5601 5598 5594 5594 5589 5588 5585 5580 5577
5648 5645 5645 5646 5645 5643 5645 5645 5646 5647 5647 5646 5644 5632 5625 5634 5640 5639 5637 5635 5634 5630 5628 5625 5625 5623 5620 5615 5611 5610 5606 5603 5599 5595 5591 5589 5586 5584 5581 5576 5573 5570 5566
5646 5645 5644 5645 5645 5638 5640 5644 5645 5645 5646 5645 5644 5640 5634 5637 5637 5634 5632 5631 5629 5626 5622 5619 5617 5615 5610 5607 5605 5602 5600 5596 5590 5586 5583 5580 5577 5573 5568 5565 5561 5558 5554
5648 5647 5645 5644 5641 5641 5643 5643 5643 5637 5640 5640 5640 5638 5636 5634 5632 5630 5628 5626 5622 5620 5618 5614 5611 5609 5603 5600 5597 5592 5587 5584 5579 5575 5572 5569 5565 5556 5557 5553 5550 5546 5543
5654 5651 5650 5648 5647 5642 5643 5641 5643 5642 5640 5638 5639 5638 5637 5634 5631 5628 5625 5621 5618 5615 5612 5608 5606 5601 5594 5589 5588 5584 5576 5569 5566 5562 5560 5557 5553 5548 5547 5544 5540 5538 5533
5654 5651 5649 5648 5646 5644 5644 5643 5642 5641 5640 5639 5638 5636 5634 5631 5629 5626 5622 5618 5614 5611 5608 5604 5599 5594 5589 5583 5578 5573 5566 5560 5555 5550 5547 5546 5544 5541 5537 5533 5531 5529 5526